Home   Weather   Lugano   Past weeks

Flag for Switzerland Past Weather in Lugano, Switzerland — Yesterday and Last 2 Weeks

Now
52 °F

Clear.


Feels Like: 49 °F
Forecast: 33 / 57 °F
Wind: 9 mph from Southwest

Location: Lugano Airport

Current Time: Feb 20, 2017 at 4:29:08 pm

Latest Report: Feb 20, 2017 at 3:50 pm


Visibility: 4 mi

Pressure: 30.15 "Hg

Humidity: 58%

Dew Point: 37 °F

Location of LuganoLocation

Past Weather in Lugano — Graph

°F

Lugano Temperature Yesterday

Maximum temperature yesterday: 54 °F (at 2:20 pm)
Minimum temperature yesterday: 28 °F (at 6:50 am)
Average temperature yesterday: 40 °F

High & Low Weather Summary for the Past Weeks

 TemperatureHumidityPressure
High63 °F (Feb 16, 2:20 pm)100% (Feb 5, 4:20 pm)30.60 "Hg (Feb 5, 4:20 pm)
Low28 °F (Feb 19, 6:50 am)21% (Feb 6, 9:20 pm)29.53 "Hg (Feb 6, 3:20 am)
Average42 °F80%30.21 "Hg
* Reported Feb 5 3:20 pm — Feb 20 3:20 pm, Lugano, Weather by CustomWeather, © 2017

Note: Actual official high and low records may vary slightly from our data, if they occured in-between our weather recording intervals... More about our weather records

Advertising

Lugano Weather History for the Previous 24 Hours

Scroll right to see more
 ConditionsComfort  
Time TempWeatherWind HumidityBarometerVisibility
3:20 pm
Mon, Feb 20
52 °FClear.9 mph58%30.15 "Hg4 mi
2:50 pm52 °FClear.9 mph58%30.18 "Hg4 mi
2:20 pm52 °FClear.10 mph62%30.18 "Hg4 mi
1:50 pm52 °FClear.9 mph62%30.18 "Hg4 mi
1:20 pm52 °FClear.7 mph62%30.18 "Hg5 mi
12:50 pm50 °FClear.5 mph58%30.21 "Hg5 mi
12:20 pm48 °FClear.3 mph58%30.21 "Hg5 mi
11:50 am46 °FClear.3 mph62%30.21 "Hg5 mi
11:20 am45 °FClear.2 mph66%30.21 "Hg5 mi
10:50 am41 °FClear.3 mph76%30.21 "Hg5 mi
10:20 am41 °FClear.2 mph76%30.21 "Hg5 mi
9:50 am37 °FClear.No wind87%30.21 "Hg5 mi
9:20 am37 °FClear.1 mph81%30.21 "Hg5 mi
8:50 am32 °FClear.1 mph93%30.21 "Hg5 mi
8:20 am30 °FChilly.3 mph93%30.21 "Hg4 mi
7:50 am32 °FChilly.1 mph93%30.21 "Hg4 mi
7:20 am30 °FChilly.2 mph100%30.18 "Hg4 mi
6:50 am28 °FChilly.1 mph93%30.18 "Hg4 mi
6:20 am30 °FClear.1 mph100%30.18 "Hg4 mi
5:50 am30 °FIce fog.1 mph93%30.21 "Hg2 mi
5:20 am30 °FIce fog.2 mph93%30.21 "Hg1 mi
4:50 am30 °FIce fog.2 mph100%30.21 "Hg1 mi
4:20 am32 °FIce fog.3 mph93%30.21 "Hg1 mi
3:50 am30 °FIce fog.5 mph93%30.18 "Hg2 mi
3:20 am32 °FIce fog.1 mph93%30.21 "Hg1 mi
2:50 am32 °FIce fog.2 mph93%30.21 "Hg1 mi
2:20 am32 °FIce fog.2 mph93%30.21 "Hg2 mi
1:50 am34 °FFog.2 mph93%30.21 "Hg2 mi
1:20 am32 °FIce fog.3 mph93%30.21 "Hg1 mi
12:50 am34 °FFog.1 mph93%30.21 "Hg2 mi
12:20 am34 °FFog.2 mph93%30.21 "Hg2 mi
11:50 pm
Sun, Feb 19
36 °FFog.1 mph93%30.21 "Hg2 mi
11:20 pm36 °FFog.2 mph93%30.21 "Hg2 mi
10:50 pm36 °FFog.2 mph87%30.21 "Hg2 mi
10:20 pm36 °FFog.1 mph93%30.21 "Hg2 mi
9:50 pm37 °FClear.1 mph81%30.21 "Hg4 mi
9:20 pm39 °FClear.1 mph87%30.18 "Hg4 mi
8:50 pm39 °FClear.1 mph93%30.21 "Hg4 mi
8:20 pm41 °FClear.1 mph81%30.18 "Hg4 mi
7:50 pm43 °FClear.1 mph76%30.18 "Hg4 mi
7:20 pm45 °FClear.3 mph71%30.18 "Hg4 mi
6:50 pm46 °FClear.1 mph66%30.18 "Hg4 mi
6:20 pm46 °FClear.3 mph66%30.18 "Hg4 mi
5:50 pm48 °FClear.7 mph62%30.18 "Hg4 mi
5:20 pm50 °FClear.7 mph58%30.15 "Hg4 mi
4:50 pm50 °FClear.9 mph58%30.15 "Hg4 mi
4:20 pm52 °FClear.10 mph58%30.15 "Hg4 mi
Weather by CustomWeather, © 2017

See weather overviewHow to use our weather pages